Regional Weather Roundup
Issued by NWS

Home | Current Version | Previous Version | Text Only | Print | Product List | Glossary Off
Versions: 1 2 3 4 5 6 7 8 9 10 11 12 13 14 15 16 17 18 19 20 21 22 23 24 25 26 27 28 29 30 31 32 33 34 35 36 37 38 39 40 41 42 43 44 45 46 47 48 49 50

000
ASUS43 KDTX 222210
RWRMI
MICHIGAN HOURLY REGIONAL WEATHER ROUNDUP
NATIONAL WEATHER SERVICE DETROIT/PONTIAC MI
600 PM EDT FRI JUL 22 2016

NOTE: "FAIR" INDICATES FEW OR NO CLOUDS BELOW 12,000 FEET WITH NO
SIGNIFICANT WEATHER AND/OR OBSTRUCTION TO VISIBILITY.

MIZ047>049-052>055-059>063-066>070-074>076-081>083-222300-
SOUTHEAST LOWER MICHIGAN

CITY           SKY/WX    TMP DP  RH WIND       PRES   REMARKS
ADRIAN         SUNNY     89  70  53 W10       29.97F HX  94
ALMA           SUNNY     90  70  51 W9G23     29.95F HX  95
ANN ARBOR      SUNNY     91  70  49 SW12      29.95F HX  96
BAD AXE        MOSUNNY   90  67  46 W12G18    29.91F HX  93
CARO           MOSUNNY   91  70  51 SW10      29.92S HX  96
DETROIT CITY   SUNNY     93  68  43 W12G20    29.92F HX  97
DETROIT        MOSUNNY   94  67  41 W15G23    29.94F HX  97
FLINT          SUNNY     96  65  35 W15       29.94F HX  98
GROSSE ILE     SUNNY     91  70  50 SW12      29.92F HX  96
HOWELL         SUNNY     91  65  41 W12       29.96F HX  93

CITY           SKY/WX    TMP DP  RH WIND       PRES   REMARKS
JACKSON        SUNNY     88  70  55 W10       29.97F HX  93
LAMBERTVILLE   SUNNY     91  70  50 W8        29.97S HX  96
LANSING        SUNNY     90  67  46 W14       29.96F HX  93
LAPEER         FAIR      93  64  38 W9        29.93F HX  95
MASON          SUNNY     90  67  47 W14G21    29.96F HX  93
MONROE         SUNNY     90  74  59 W10       29.94F HX  98
MT. CLEMENS    MOSUNNY   93  71  48 W10       29.90F HX  99
PONTIAC        MOSUNNY   91  67  44 W14G20    29.94F HX  94
PORT HOPE        N/A     81  71  71 SE6       29.89F
PORT HURON     SUNNY     90  70  51 W7        29.91F HX  95
TRI CITIES     SUNNY     90  72  55 W15       29.92F HX  97
MIDLAND        FAIR      92  67  43 W8        29.91F HX  96
TROY           MOSUNNY   94  64  36 W12G20    29.95S HX  95
SAGINAW HB     SUNNY     91  68  46 W12       29.92F HX  95
$$
MIZ043>046-050>051-056>058-064>065-071>073-077>080-222300-
SOUTHWEST LOWER MICHIGAN

CITY           SKY/WX    TMP DP  RH WIND       PRES   REMARKS
BATTLE CREEK   SUNNY     86  71  60 W10       29.99F HX  91
BENTON HARBOR  SUNNY     84  68  58 W7        29.98F
BIG RAPIDS     SUNNY     89  64  44 W6        29.96F HX  90
COLDWATER      SUNNY     89  68  49 W8        29.99F HX  92
FREMONT        FAIR      87  65  47 W9        29.97S
HOLLAND        SUNNY     82  69  64 SW7       29.99F
GRAND RAPIDS   MOSUNNY   86  69  56 SW12      29.98F HX  90
IONIA          FAIR      88  66  47 SW12      29.95F HX  90
KALAMAZOO      SUNNY     87  67  51 W8        29.98F HX  90
LUDINGTON      SUNNY     78  70  76 SW7       29.96F
MARSHALL       SUNNY     89  71  55 W12       29.97F HX  95
MOUNT PLEASANT SUNNY     92  67  43 W10       29.93F HX  95
MUSKEGON       SUNNY     81  68  64 SW8       29.98F
SOUTH HAVEN    SUNNY     82  68  63 W8        29.99S
$$
MIZ016>042-222300-
NORTHERN LOWER MICHIGAN

CITY           SKY/WX    TMP DP  RH WIND       PRES   REMARKS
ALPENA         SUNNY     91  52  26 NW14      29.90F
BEAVER ISLAND  SUNNY     80  65  60 SW12G20   29.92F
BELLAIRE       SUNNY     86  59  39 W5        29.93F
CADILLAC       SUNNY     88  53  29 NW10      29.97F
CHARLEVOIX     SUNNY     85  58  40 SW12      29.95F
FRANKFORT      SUNNY     80  68  67 W6        29.96F
GAYLORD        SUNNY     86  56  35 W12       29.96F
GRAYLING       SUNNY     88  56  33 NW9G16    29.96F
HARBOR SPRINGS SUNNY     82  63  51 W6        29.92F
HOUGHTON LAKE  SUNNY     90  46  21 W13       29.96F
MANISTEE       SUNNY     84  68  58 W8        29.96F
OSCODA         SUNNY     87  62  42 NE8       29.89S
PELLSTON       SUNNY     85  61  44 W9        29.92S
ROGERS CITY    SUNNY     88  55  32 NW13G20   29.90F
TRAVERSE CITY  SUNNY     90  56  31 NW9       29.92F
$$
MIZ007>008-015-222300-
EASTERN UPPER MICHIGAN

CITY           SKY/WX    TMP DP  RH WIND       PRES   REMARKS
KINROSS        SUNNY     81  62  52 N9        29.90S
MACKINAC ISLAN SUNNY     80  64  58 SW12G20   29.90S
NEWBERRY       SUNNY     85  56  36 W15G21    29.91S
S. S. MARIE    SUNNY     82  62  50 NW9       29.88F
MUNISING         N/A     81  63  54 N7        29.91F
$$
MIZ004>006-011>014-085-222300-
CENTRAL UPPER MICHIGAN

CITY           SKY/WX    TMP DP  RH WIND       PRES   REMARKS
MANISTIQUE     SUNNY     78  68  69 SW7       29.91R
ESCANABA       SUNNY     93  50  22 NW13G20   29.89F HX  90
MENOMINEE      SUNNY     88  70  55 SW12        N/A  HX  93
SAWYER-GWINN   SUNNY     90  52  27 NW14G25   29.95S
$$
MIZ001>003-009>011-084-222300-
WESTERN UPPER MICHIGAN

CITY           SKY/WX    TMP DP  RH WIND       PRES   REMARKS
IRON MOUNTAIN  SUNNY     92  51  24 NW10      29.94F
HOUGHTON       SUNNY     84  60  44 W20G29    29.92S
COPPER HARBOR    N/A     85  60  42 N9G17     29.89S
IRONWOOD       SUNNY     86  64  48 NW9       29.96S
$$

ABBREVIATIONS USED IN REMARKS
   TC - TEMPERATURE IN CELSIUS
  WCI - WIND CHILL INDEX
   HX - HEAT INDEX
  VSB - VISIBILITY




USA.gov is the U.S. government's official web portal to all federal, state and local government web resources and services.